Theta_e
302 302 302 302 302 302 301 301 302 302 302 302 301 301 302 304 305 309 313 312 312 314 313 314 316 318 316 314 317 319 321 322 321 322 324 327 328 331 336 334 335 337 350 355 351
302 302 302 302 302 302 301 301 302 303 303 303 303 302 301 301 304 309 309 311 311 313 313 314 314 317 318 315 316 320 321 321 322 323 324 325 327 332 335 335 335 342 355 353 353
302 302 302 302 302 302 303 304 305 307 306 306 303 302 301 301 308 314 315 313 313 310 311 313 314 317 320 317 316 319 321 320 322 323 324 325 326 332 335 335 334 339 349 350 345
302 302 302 301 301 302 301 304 306 306 307 306 306 304 302 305 312 318 313 311 309 311 312 312 312 317 321 321 316 318 319 320 321 322 323 325 325 327 330 331 334 334 347 348 351
302 302 302 302 302 302 302 305 306 306 306 306 307 306 305 307 308 311 312 313 315 317 314 314 314 316 321 321 319 318 320 319 320 322 323 324 325 325 329 329 332 344 350 348 350
302 302 302 302 302 303 305 305 306 307 308 308 307 306 307 309 308 309 310 311 311 314 315 314 315 315 318 321 320 319 319 320 320 321 322 323 324 325 326 328 333 335 347 349 350
302 302 302 302 302 304 304 306 306 307 308 308 308 307 308 308 309 309 309 311 312 311 312 313 317 318 316 320 319 319 320 320 321 321 322 322 323 324 326 327 330 332 340 345 348
302 302 302 302 303 304 305 306 307 308 308 307 307 308 309 309 309 309 308 309 311 311 311 314 316 318 317 318 319 319 320 321 321 322 321 322 322 324 324 325 326 327 336 341 347
301 301 302 303 304 304 306 308 308 309 307 307 307 309 310 310 311 310 309 309 309 310 312 315 315 319 320 321 321 319 320 321 321 321 321 322 322 324 323 323 324 325 330 339 344
301 302 303 305 305 306 308 309 311 310 310 308 309 309 310 310 308 309 309 308 309 308 312 313 315 319 322 322 322 319 318 320 322 322 321 321 321 322 322 323 324 327 330 338 341
301 302 305 306 308 308 311 312 313 312 310 311 312 311 311 309 308 308 309 311 310 309 311 312 315 319 322 321 319 319 318 320 321 323 322 322 321 322 323 323 323 328 330 336 339
301 303 307 308 309 311 312 311 310 308 308 310 310 311 311 310 309 309 311 311 311 310 310 312 313 316 319 321 319 319 320 319 321 322 322 323 321 321 323 324 323 325 330 334 337
302 304 309 311 312 314 313 311 309 308 308 310 311 310 309 310 309 309 309 310 312 312 310 313 315 314 317 319 320 319 319 320 320 321 322 322 322 323 322 323 323 326 329 332 333
303 304 310 312 313 313 311 310 309 307 311 313 310 311 309 309 309 309 310 310 312 311 311 312 312 314 317 319 320 319 319 320 320 322 322 322 322 323 324 323 324 324 327 331 331
303 305 312 313 313 313 311 310 309 308 320 312 313 312 311 310 311 312 310 309 312 312 312 312 312 314 314 318 320 320 319 320 321 322 321 320 322 324 324 324 324 325 325 328 329
304 307 312 313 313 313 311 311 308 313 321 316 313 314 312 312 311 311 310 310 310 312 311 314 313 314 315 318 320 320 319 320 321 322 321 320 322 323 323 324 325 324 323 326 328
306 308 313 313 314 313 310 309 315 320 315 317 315 314 315 315 314 313 312 313 310 311 311 313 312 315 317 318 320 320 321 321 321 321 321 322 322 323 325 324 324 326 323 323 325
310 311 314 314 315 314 312 313 319 316 316 314 314 314 315 314 315 314 313 314 311 310 313 313 314 315 317 319 321 321 321 320 321 322 320 322 321 322 325 324 323 324 324 324 326
311 316 316 314 316 315 315 320 318 312 312 311 312 317 316 316 314 314 314 312 311 311 314 314 315 315 319 320 319 320 320 321 321 321 321 322 323 324 325 325 324 326 325 324 323
313 317 315 314 316 316 317 317 316 313 312 308 315 315 317 317 314 313 314 314 314 312 312 315 317 317 317 320 319 320 320 321 323 324 324 324 326 325 325 325 324 325 324 323 322
314 317 314 314 315 313 317 316 314 313 314 308 313 316 316 317 314 315 314 313 313 313 313 314 319 318 317 320 319 319 320 321 322 324 328 328 326 327 326 326 327 326 325 325 324
314 315 314 314 315 314 316 315 314 314 314 310 307 310 315 317 319 316 316 314 312 314 313 317 320 319 320 320 319 319 319 322 325 327 325 328 328 326 327 329 330 335 334 334 335
314 312 312 314 317 317 315 315 315 315 314 312 311 312 314 317 319 317 316 314 312 314 316 319 320 322 321 322 320 319 320 322 326 329 327 330 328 330 337 339 336 334 335 335 335
312 312 311 313 314 316 317 316 316 315 314 313 313 313 314 316 318 318 313 314 313 319 317 318 320 321 322 321 319 319 320 321 323 329 326 330 340 339 337 336 334 333 333 333 333
310 311 310 314 315 316 316 316 317 318 314 313 313 314 318 319 318 320 315 315 318 317 317 317 319 321 319 318 317 318 319 321 323 327 328 332 337 338 334 334 332 332 332 332 332
309 309 309 311 314 315 315 317 316 317 315 316 315 315 318 319 319 324 317 317 319 318 318 316 321 322 319 317 317 318 320 320 323 323 328 330 339 333 331 332 334 333 332 331 329
307 308 309 312 313 316 316 317 316 317 315 315 316 317 318 319 318 320 321 321 321 320 318 316 323 326 322 319 319 319 319 320 321 323 327 339 335 331 333 333 331 330 328 328 326
Wind_Speed
20 20 20 20 20 21 20 20 20 20 19 19 20 21 23 25 24 23 27 24 14 18 23 17 14 15 19 25 27 29 17 20 30 28 23 24 24 23 20 20 12 7 12 15 23
21 21 20 21 21 21 21 20 20 21 20 18 20 20 19 21 25 29 30 30 25 26 20 14 18 18 24 23 30 23 18 31 23 23 23 27 23 29 22 21 16 14 18 15 11
23 23 24 25 24 24 24 21 21 19 20 21 19 19 18 13 21 7 6 13 21 29 23 21 19 22 28 30 32 31 27 23 27 32 29 25 24 24 21 18 15 19 18 27 25
25 26 27 28 27 27 25 23 22 19 18 18 19 18 17 9 5 6 12 12 3 15 20 21 22 25 23 27 34 27 33 32 28 31 29 22 30 18 21 19 18 14 26 22 22
26 27 29 31 30 27 24 22 23 20 18 17 18 17 13 13 27 17 21 13 3 3 12 20 25 26 24 24 30 29 26 35 35 29 31 25 19 20 20 19 17 24 18 18 17
28 29 30 33 31 27 25 25 23 21 20 20 17 15 13 23 14 14 20 19 20 12 14 16 22 26 25 27 27 32 29 27 32 31 29 18 16 16 17 21 14 16 22 22 19
30 31 32 33 31 29 28 26 22 22 22 20 15 13 17 31 11 13 15 17 16 21 20 18 16 24 31 23 32 32 26 25 23 30 26 14 18 17 20 22 16 16 14 11 17
34 34 34 33 32 31 28 21 21 20 21 17 13 12 17 18 15 20 21 18 9 13 19 17 16 23 37 29 28 26 27 22 27 21 27 17 23 22 23 19 20 21 17 19 21
36 37 37 36 34 29 22 20 18 17 12 7 6 11 13 10 12 15 18 22 22 16 14 16 13 16 21 20 21 23 22 29 26 25 21 20 21 24 28 26 23 19 22 23 16
38 38 39 32 25 21 22 19 11 16 5 1 6 6 13 11 9 8 11 14 21 18 20 13 11 9 14 18 20 29 29 29 25 29 24 24 21 20 30 28 23 20 26 24 20
38 39 30 21 20 21 17 17 7 4 12 13 11 15 21 5 3 6 9 6 14 21 19 21 8 15 25 27 27 23 25 26 24 23 24 23 23 17 19 27 24 25 26 24 23
36 35 20 23 22 13 8 6 9 11 15 22 31 34 29 16 16 10 9 8 12 19 20 18 19 20 25 24 26 27 26 23 21 23 24 23 22 20 19 20 26 25 24 24 23
36 29 20 22 13 12 2 8 11 12 7 15 14 15 15 21 18 9 9 12 12 18 19 20 19 22 23 24 26 27 24 23 27 24 24 21 21 23 21 25 28 28 26 25 25
35 22 21 19 8 12 4 9 13 6 4 5 6 0 6 10 18 18 12 13 14 14 20 23 24 25 24 24 26 23 26 23 26 22 17 22 14 18 22 17 17 24 27 27 25
33 14 21 15 11 10 8 12 10 1 2 2 7 4 4 13 2 7 12 19 13 10 6 18 21 22 24 22 26 23 25 21 25 19 16 21 14 20 21 21 19 20 25 27 26
27 7 22 17 12 9 7 24 3 2 3 9 2 4 7 13 18 3 9 21 22 21 6 18 28 20 25 22 25 27 24 17 20 15 13 18 19 16 25 23 21 21 28 27 28
17 5 13 10 12 12 12 6 2 3 12 9 13 17 11 8 7 11 11 17 17 15 11 17 12 20 17 21 24 25 17 12 13 10 15 20 21 17 29 27 23 21 28 29 27
12 8 7 11 12 14 17 3 4 9 6 14 16 19 16 10 7 9 7 13 23 15 9 13 3 16 17 25 21 23 20 12 21 16 17 20 13 19 19 27 30 30 28 26 20
8 6 3 14 10 13 15 4 5 4 7 7 18 5 9 4 5 8 15 14 17 16 7 8 12 13 11 18 25 26 18 21 17 16 13 15 17 14 13 22 21 27 25 22 22
13 7 9 18 11 13 3 8 9 8 6 1 4 8 13 7 7 10 10 13 20 18 15 9 10 12 17 17 25 23 24 21 12 16 10 13 17 10 15 15 18 20 24 25 25
12 6 10 18 11 20 5 8 11 18 16 3 5 8 11 11 4 5 14 6 15 15 13 4 0 9 16 13 21 17 18 13 9 10 4 7 12 16 15 11 13 14 20 22 22
13 5 11 17 12 14 7 14 16 16 14 3 3 5 5 16 7 6 7 10 17 18 14 5 1 9 23 18 21 24 20 19 7 8 11 10 5 17 17 15 13 24 22 24 25
18 11 11 14 6 10 12 14 20 15 12 1 3 5 10 9 5 9 8 9 18 10 7 6 4 8 13 14 20 22 17 18 10 6 6 9 11 13 20 23 29 26 23 21 23
12 7 12 16 13 15 15 15 20 15 7 10 6 9 5 5 5 5 10 14 13 12 15 4 2 4 13 20 20 19 18 19 5 5 12 16 21 17 17 20 20 24 24 23 25
15 7 11 7 13 15 15 19 23 15 6 11 5 15 10 2 4 2 4 11 11 10 5 3 4 18 14 21 22 17 23 16 18 19 13 23 24 17 15 17 22 27 28 28 28
11 10 16 21 19 17 17 19 20 23 6 12 9 18 9 6 2 8 9 6 5 7 6 3 4 11 19 19 21 22 24 17 12 7 24 21 22 18 23 22 20 27 28 28 30
15 14 11 15 14 13 16 20 19 18 9 9 11 9 8 12 23 21 9 6 4 4 2 2 6 13 18 20 19 18 20 10 4 2 19 20 16 21 19 14 22 29 30 31 31
Wind_Direction
345 340 338 336 334 331 329 325 323 320 316 308 304 295 289 287 289 294 276 265 253 260 266 262 252 243 234 233 228 221 235 234 228 226 244 233 234 215 220 222 147 154 66 98 139
344 342 338 335 332 326 325 322 319 320 318 316 312 305 297 296 294 285 287 276 251 249 254 248 245 242 232 224 229 225 228 233 234 239 235 251 247 189 193 233 151 126 94 126 97
347 345 341 337 331 327 323 320 316 316 316 315 311 312 306 311 305 290 280 294 252 237 243 245 246 246 229 225 218 226 232 230 244 244 249 249 252 180 179 210 218 163 142 145 164
346 344 339 334 330 325 321 315 312 309 307 306 306 308 310 307 272 241 314 336 17 232 233 233 238 243 243 224 224 226 230 238 233 248 251 259 247 243 202 205 205 219 168 165 173
344 341 337 335 329 324 322 318 315 307 303 301 302 306 314 256 249 257 284 301 303 263 222 224 231 230 237 234 224 230 230 228 244 246 248 245 250 263 179 223 212 131 143 164 174
344 338 334 333 329 325 319 316 311 302 299 296 293 294 277 266 275 258 257 270 261 255 237 240 235 236 252 239 228 224 228 233 225 244 256 236 240 259 185 203 149 168 165 164 172
341 338 331 330 328 322 318 315 310 304 304 291 282 273 262 251 260 259 265 267 262 241 245 243 251 261 232 244 234 230 225 228 229 220 238 219 232 237 208 195 173 193 189 192 182
339 335 330 329 323 319 316 318 314 304 305 296 266 252 258 277 273 267 257 255 246 239 238 245 281 276 230 232 246 227 232 217 217 221 223 190 220 224 225 211 220 188 195 198 200
338 335 331 326 320 318 320 322 312 300 319 302 235 221 269 307 252 262 245 246 246 251 229 232 268 253 242 236 230 216 213 220 208 217 210 198 219 214 215 215 215 198 201 201 185
339 336 334 334 333 333 330 326 326 285 303 138 212 216 251 272 281 253 245 235 235 226 224 210 253 230 233 214 211 200 214 209 217 196 213 203 220 231 207 206 212 201 212 197 183
340 339 342 353 347 336 350 360 2 189 214 228 252 244 292 279 265 237 214 248 224 227 217 228 223 214 213 214 218 210 208 212 205 200 200 213 207 220 220 202 205 201 211 198 180
343 341 351 345 339 345 357 15 4 319 294 265 261 258 255 258 283 234 212 199 233 218 216 217 216 235 222 221 223 225 205 213 214 223 189 202 212 217 234 182 207 199 208 204 181
343 341 345 353 8 348 6 355 337 329 271 302 252 241 241 226 246 235 238 231 260 228 214 218 228 219 231 239 219 225 222 194 216 200 180 191 217 199 234 183 207 197 206 202 195
343 341 352 8 3 351 19 340 326 348 291 223 178 174 201 215 236 245 228 230 247 225 215 223 221 203 222 225 220 217 227 202 210 187 188 186 200 214 219 183 201 206 211 192 200
344 347 8 350 339 332 313 331 328 67 271 354 134 134 203 213 114 306 250 228 260 262 240 234 205 218 217 215 223 218 220 220 202 209 172 189 227 192 212 189 199 211 211 201 195
347 10 17 358 355 336 309 320 95 220 337 345 95 275 215 224 238 233 229 236 231 244 246 274 272 214 218 222 232 214 215 219 197 191 194 189 217 220 193 201 186 197 208 205 193
1 30 15 359 347 325 337 357 204 1 331 337 331 313 262 239 251 231 245 226 226 225 223 251 247 196 243 215 213 224 207 192 193 176 196 205 197 243 183 192 193 192 200 202 200
18 21 347 12 347 344 334 319 348 348 298 320 311 306 279 254 209 226 249 244 210 233 285 206 200 196 226 233 203 220 203 191 171 184 193 206 190 224 243 179 189 186 196 190 186
353 345 4 346 342 318 343 340 0 323 303 300 310 286 291 215 144 194 220 230 206 141 232 216 180 190 212 212 246 194 206 194 184 188 181 202 196 218 131 164 178 170 180 186 192
357 354 360 353 333 331 316 325 342 309 277 280 285 321 319 12 198 185 199 231 246 170 197 268 170 200 213 236 233 206 209 200 200 186 199 177 184 158 151 160 170 173 176 176 181
338 194 13 358 345 6 349 324 313 318 336 184 295 306 318 342 233 220 178 201 224 147 209 264 94 210 210 217 199 196 215 221 208 231 172 144 184 138 140 146 136 137 140 146 160
337 15 358 1 16 359 330 330 336 334 344 199 273 261 281 321 356 198 230 215 187 186 206 135 147 167 199 221 215 210 201 207 208 258 170 185 131 132 142 151 144 98 92 106 107
326 13 22 9 10 346 344 340 352 351 348 335 274 236 289 306 312 122 210 208 174 210 142 180 126 163 208 247 236 211 193 214 244 272 153 113 142 122 94 89 102 107 108 108 118
322 4 355 348 4 349 327 353 350 4 333 331 289 286 290 310 305 341 85 143 191 84 70 46 50 225 173 189 201 201 194 213 189 259 154 163 122 104 103 108 113 122 129 134 126
10 13 2 309 330 318 345 356 346 355 335 347 308 332 333 316 287 233 157 128 103 141 84 60 211 223 186 172 183 192 193 187 214 227 176 146 139 131 128 129 135 136 138 138 143
10 4 329 298 312 1 357 352 358 352 347 328 329 332 333 349 324 321 153 181 188 171 138 137 256 231 173 181 188 194 201 199 222 223 139 168 124 127 126 135 147 142 139 136 123
3 346 331 296 338 356 351 344 4 355 343 328 11 342 343 347 322 314 36 72 46 328 199 183 243 165 174 187 204 203 189 190 219 274 154 122 129 135 135 150 135 134 130 126 121